Regional Weather Roundup
Issued by NWS Goodland, KS

Home | Current Version | Previous Version | Graphics & Text | Print | Product List | Glossary On
Versions: 1 2 3 4 5 6 7 8 9 10 11 12 13 14 15 16 17 18 19 20 21 22 23 24 25 26 27 28 29 30 31 32 33 34 35 36 37 38 39 40 41 42 43 44 45 46 47 48 49 50
000
ASUS43 KGLD 260859
RWRGLD

GOODLAND FORECAST AREA HOURLY WEATHER ROUNDUP
NATIONAL WEATHER SERVICE GOODLAND KS
300 AM MDT SUN APR 26 2015

...OFFICIAL OBSERVATIONS...

CITY           SKY/WX    TMP DP  RH WIND       PRES   REMARKS
GOODLAND KS    LGT RAIN  45  45 100 E17       29.82F FOG
HILL CITY KS   CLOUDY    48  46  93 E16       29.85R FOG
IMPERIAL NEB   CLOUDY    46  44  93 E14       29.85F FOG
MCCOOK NEB     CLOUDY    46  44  93 E8        29.87F FOG
AKRON CO       CLOUDY    44  44 100 E22       29.81S
BURLINGTON CO  FOG       47  45  93 E14       29.80S VSB 1/2
LIMON CO       CLOUDY    48  46  93 E18G26    29.78S
$$

...UNOFFICIAL OBSERVATIONS...

CITY           SKY/WX    TMP DP  RH WIND       PRES   REMARKS
GOVE KS          N/A     48  32  54 MISG        N/A
LENORA KS        N/A     46  32  58 MISG        N/A
SHARON SPRINGS   N/A     47  46  96 CALM        N/A
TRIBUNE KS     CLOUDY    50  50 100 NE16G23   29.79S VSB 1/2
KIT CARSON CO    N/A     49  46  91 MISG        N/A
YUMA CO          N/A     50  50  99 N12         N/A
$$



USA.gov is the U.S. government's official web portal to all federal, state and local government web resources and services.